DM1HF-13 Weather Reports


time (UTC)temp
F
wind
direction
speed
knots
gust
knots
rain 1hr
in
rain 24hr
in
rain mn
in
humidity
%
barometer
mb
20260507100016 46 304 1.7 0.0 0.14 1.53 0.00 95 1014.8
20260507095516 46 1 1.7 0.0 0.29 1.51 0.00 95 1014.8
20260507095017 46 297 0.9 0.0 0.23 1.48 0.00 95 1014.7
20260507094516 46 44 0.0 0.0 0.28 1.46 0.00 95 1014.6
20260507094016 46 336 1.7 0.0 0.30 1.43 0.00 95 1014.5
20260507093516 46 275 1.7 0.0 0.35 1.41 0.00 95 1014.5
20260507093016 45 332 2.6 0.0 0.11 1.39 0.00 95 1014.4
20260507092516 45 303 1.7 0.0 0.19 1.37 0.00 95 1014.3
20260507092016 46 250 2.6 0.0 0.14 1.35 0.00 95 1014.2
20260507091516 45 298 3.5 0.0 0.15 1.34 0.00 95 1014.2
20260507091016 45 284 1.7 0.0 0.21 1.33 0.00 95 1014.1
20260507090516 45 271 0.9 0.0 0.16 1.31 0.00 96 1014.1
20260507090016 45 287 2.6 0.0 0.45 1.29 0.00 95 1014.0
20260507085516 45 326 2.6 0.0 0.22 1.26 0.00 96 1013.8
20260507085016 45 300 1.7 0.0 0.44 1.23 0.00 95 1013.9
20260507084516 45 287 3.5 0.0 0.17 1.20 0.00 95 1013.6
20260507084016 45 291 1.7 0.0 0.30 1.18 0.00 95 1013.6
20260507083516 45 291 0.9 0.0 0.34 1.14 0.00 95 1013.6
20260507083016 46 286 0.9 0.0 0.18 1.11 0.00 95 1013.4
20260507082516 45 343 1.7 0.0 0.15 1.09 0.00 95 1013.4
20260507082016 46 281 2.6 0.0 0.00 1.08 0.00 95 1013.4
20260507081516 46 285 0.9 0.0 0.09 1.07 0.00 95 1013.3
20260507081016 45 333 3.5 0.0 0.06 1.06 0.00 95 1013.2
20260507080516 46 322 2.6 0.0 0.02 1.06 0.00 95 1013.2
20260507080016 46 282 1.7 0.0 0.31 1.05 0.00 95 1013.1
20260507075516 46 29 0.9 0.0 0.30 1.03 0.00 95 1013.1
20260507075016 46 19 0.9 0.0 0.12 1.01 0.00 95 1013.0
20260507074516 46 285 4.3 0.0 0.07 0.99 0.00 95 1013.0
20260507074016 46 303 3.5 0.0 0.09 0.98 0.00 95 1012.9
20260507073516 46 324 0.9 0.0 0.07 0.97 0.00 94 1012.9
20260507073016 46 271 0.9 0.0 0.07 0.96 0.00 95 1012.8
20260507072516 46 304 3.5 0.0 0.21 0.95 0.00 95 1012.7
20260507072016 46 303 1.7 0.0 0.13 0.94 0.00 95 1012.7
20260507071516 46 355 1.7 0.0 0.11 0.92 0.00 95 1012.6
20260507071016 46 263 2.6 0.0 0.30 0.91 0.00 95 1012.5
20260507070516 46 336 2.6 0.0 0.10 0.90 0.00 95 1012.5
20260507070016 47 334 1.7 0.0 0.19 0.89 0.00 95 1012.4
20260507065516 47 338 2.6 0.0 0.24 0.88 0.00 95 1012.3
20260507065016 47 309 1.7 0.0 0.19 0.82 0.00 95 1012.2
20260507064516 47 319 1.7 0.0 0.38 0.81 0.00 95 1012.2
20260507064016 47 224 1.7 0.0 0.13 0.78 0.00 94 1012.1
20260507063516 47 252 1.7 0.0 0.22 0.76 0.00 94 1012.0
20260507063016 47 339 1.7 0.0 0.31 0.73 0.00 95 1011.8
20260507062516 47 229 2.6 0.0 0.47 0.70 0.00 94 1011.8
20260507062016 47 201 0.9 0.0 0.42 0.67 0.00 94 1011.7
20260507061516 47 205 1.7 0.0 0.29 0.64 0.00 95 1011.7
20260507061016 47 188 1.7 0.0 0.30 0.61 0.00 94 1011.6
20260507060516 47 271 3.5 0.0 0.28 0.59 0.00 94 1011.5
20260507060016 47 264 3.5 0.0 0.22 0.57 0.00 94 1011.5
20260507055517 48 170 0.9 0.0 0.13 0.55 0.00 95 1011.4
20260507055016 48 297 1.7 0.0 0.22 0.53 0.00 95 1011.3
20260507054516 48 269 1.7 0.0 0.51 0.52 0.00 95 1011.3
20260507054016 48 258 1.7 0.0 0.15 0.50 0.00 95 1011.2
20260507053516 48 199 1.7 0.0 0.15 0.49 0.00 95 1011.2
20260507053016 48 254 1.7 0.0 0.07 0.48 0.00 95 1011.1
20260507052516 48 279 1.7 0.0 0.17 0.46 0.00 95 1011.0
20260507052016 48 81 0.9 0.0 0.31 0.45 0.00 95 1011.0
20260507051517 48 246 0.9 0.0 0.46 0.41 0.00 95 1010.9
20260507051016 48 276 2.6 0.0 1.06 0.35 0.00 95 1010.9
20260507050516 48 261 1.7 0.0 0.13 0.32 0.00 95 1010.8
20260507050016 48 279 2.6 0.0 0.23 0.31 0.00 94 1010.8
20260507045516 48 247 1.7 0.0 0.12 0.30 0.00 95 1010.7
20260507045016 48 289 0.9 0.0 0.19 0.29 0.00 95 1010.7
20260507044516 48 172 1.7 0.0 0.29 0.27 0.00 94 1010.6
20260507044016 48 256 0.9 0.0 0.29 0.26 0.00 95 1010.5
20260507043516 48 261 1.7 0.0 0.13 0.25 0.00 94 1010.5
20260507043016 48 187 0.9 0.0 0.10 0.24 0.00 94 1010.4
20260507042516 49 249 1.7 0.0 0.21 0.23 0.00 94 1010.4
20260507042016 49 197 2.6 0.0 0.28 0.19 0.00 94 1010.3
20260507041516 49 159 0.9 0.0 0.08 0.18 0.00 94 1010.2
20260507041016 49 214 0.9 0.0 0.35 0.15 0.00 94 1010.2
20260507040516 49 223 0.9 0.0 0.00 0.15 0.00 94 1010.2
20260507040016 49 242 1.7 0.0 0.00 0.14 0.00 94 1010.2
20260507035516 49 294 1.7 0.0 0.00 0.14 0.00 94 1010.2
20260507035016 49 156 0.9 0.0 0.00 0.14 0.00 94 1010.1
20260507034516 49 298 2.6 0.0 0.00 0.14 0.00 94 1010.1
20260507034016 49 306 1.7 0.0 0.00 0.14 0.00 94 1010.1
20260507033516 49 216 0.0 0.0 0.00 0.14 0.00 94 1010.1
20260507033016 49 195 0.0 0.0 0.00 0.14 0.00 94 1010.0
20260507032516 49 335 1.7 0.0 0.00 0.14 0.00 94 1010.0
20260507032016 49 261 0.9 0.0 0.00 0.14 0.00 94 1010.0
20260507031516 49 253 0.9 0.0 0.00 0.14 0.00 94 1010.0
20260507031016 49 255 1.7 0.0 0.00 0.14 0.00 94 1009.9
20260507030516 49 303 2.6 0.0 0.00 0.14 0.00 94 1009.9
20260507030016 49 270 1.7 0.0 0.00 0.14 0.00 94 1009.9
20260507025516 50 286 0.9 0.0 0.00 0.14 0.00 94 1009.9
20260507025016 50 265 1.7 0.0 0.00 0.14 0.00 94 1009.9
20260507024516 50 274 2.6 0.0 0.00 0.14 0.00 94 1009.8
20260507024016 50 141 0.9 0.0 0.00 0.14 0.00 94 1009.8
20260507023516 50 198 0.9 0.0 0.00 0.14 0.00 95 1009.8
20260507023016 50 279 1.7 0.0 0.00 0.14 0.00 94 1009.7
20260507022516 50 257 0.9 0.0 0.00 0.14 0.00 95 1009.8
20260507022016 50 237 0.9 0.0 0.00 0.14 0.00 95 1009.7
20260507021516 50 213 1.7 0.0 0.00 0.14 0.00 94 1009.7
20260507021016 50 274 1.7 0.0 0.00 0.14 0.00 95 1009.8
20260507020516 50 201 2.6 0.0 0.00 0.14 0.00 94 1009.8
20260507020016 50 24 0.9 0.0 0.00 0.14 0.00 94 1009.7
20260507015516 50 310 3.5 0.0 0.15 0.13 0.00 94 1009.8
20260507015016 50 36 0.9 0.0 0.40 0.11 0.00 94 1009.8
20260507014516 50 276 1.7 0.0 0.17 0.09 0.00 94 1009.8
20260507014016 51 314 1.7 0.0 0.13 0.07 0.00 93 1009.8
20260507013516 51 190 0.9 0.0 0.23 0.03 0.00 93 1009.9
20260507013016 51 226 0.9 0.0 0.00 0.03 0.00 93 1009.8
20260507012516 51 274 0.9 0.0 0.05 0.02 0.00 93 1009.8
20260507012016 51 283 0.9 0.0 0.00 0.02 0.00 93 1009.9
20260507011516 51 272 1.7 0.0 0.15 0.02 0.00 93 1009.8
20260507011016 51 288 0.9 0.0 0.01 0.02 0.00 93 1009.7
20260507010516 51 209 0.9 0.0 0.02 0.02 0.00 92 1009.8
20260507010016 51 267 0.9 0.0 0.07 0.01 0.00 92 1009.8
20260507005516 51 146 0.9 0.0 0.04 0.00 0.00 92 1009.7
20260507005016 51 155 0.0 0.0 0.00 0.00 0.00 92 1009.7
20260507004516 51 301 0.9 0.0 0.00 0.00 0.00 91 1009.5
20260507004016 51 166 0.9 0.0 0.00 0.00 0.00 91 1009.5
20260507003516 51 246 0.0 0.0 0.00 0.00 0.00 91 1009.6
20260507003016 51 222 1.7 0.0 0.00 0.00 0.00 90 1009.5
20260507002516 51 8 0.0 0.0 0.00 0.00 0.00 91 1009.5
20260507002016 51 267 0.0 0.0 0.00 0.00 0.00 91 1009.4
20260507001516 51 205 0.9 0.0 0.00 0.00 0.00 91 1009.4
20260507001016 51 136 0.0 0.0 0.00 0.00 0.00 91 1009.3
20260507000516 51 276 3.5 0.0 0.00 0.00 0.00 91 1009.3
20260507000016 51 267 1.7 0.0 0.00 0.33 0.00 91 1009.3
20260506235516 52 237 1.7 0.0 0.00 0.33 0.00 91 1009.4
20260506235016 52 226 0.0 0.0 0.00 0.33 0.00 91 1009.4
20260506234516 52 173 0.9 0.0 0.00 0.33 0.00 92 1009.4
20260506234016 52 161 0.9 0.0 0.00 0.33 0.00 92 1009.4
20260506233516 52 170 0.9 0.0 0.00 0.33 0.00 92 1009.4
20260506233016 52 319 1.7 0.0 0.00 0.33 0.00 93 1009.3
20260506232516 52 290 1.7 0.0 0.00 0.33 0.00 92 1009.2
20260506232016 52 232 1.7 0.0 0.00 0.33 0.00 92 1009.2
20260506231516 53 341 3.5 0.0 0.00 0.33 0.00 92 1009.1
20260506231016 53 223 1.7 0.0 0.00 0.33 0.00 93 1009.2
20260506230516 53 198 1.7 0.0 0.00 0.33 0.00 92 1009.1
20260506230016 53 246 2.6 0.0 0.00 0.33 0.00 93 1009.1
20260506225516 53 311 1.7 0.0 0.00 0.33 0.00 92 1009.1
20260506225016 53 262 1.7 0.0 0.00 0.33 0.00 92 1009.0
20260506224516 53 313 1.7 0.0 0.00 0.33 0.00 93 1008.9
20260506224016 53 214 0.9 0.0 0.00 0.33 0.00 93 1008.9
20260506223516 53 214 0.9 0.0 0.00 0.33 0.00 93 1008.9
20260506223016 53 229 0.9 0.0 0.00 0.33 0.00 93 1008.9
20260506222516 53 248 0.9 0.0 0.00 0.33 0.00 92 1008.9
20260506222016 53 279 0.9 0.0 0.00 0.33 0.00 92 1008.9
20260506221516 53 239 1.7 0.0 0.00 0.33 0.00 92 1008.9
20260506221016 53 222 0.9 0.0 0.00 0.33 0.00 92 1008.8
20260506220516 53 239 1.7 0.0 0.00 0.33 0.00 92 1008.7
20260506220016 53 226 1.7 0.0 0.00 0.33 0.00 92 1008.7
20260506215517 53 308 0.9 0.0 0.00 0.33 0.00 93 1008.7
20260506215016 53 215 2.6 0.0 0.00 0.33 0.00 92 1008.7
20260506214517 53 272 2.6 0.0 0.00 0.33 0.00 92 1008.6
20260506214017 53 347 1.7 0.0 0.00 0.33 0.00 93 1008.6
20260506213517 53 214 1.7 0.0 0.00 0.33 0.00 93 1008.6
20260506213017 53 267 0.9 0.0 0.00 0.33 0.00 93 1008.6
20260506212517 53 269 0.9 0.0 0.00 0.33 0.00 93 1008.6
20260506212017 53 254 0.9 0.0 0.00 0.33 0.00 93 1008.6
20260506211516 54 316 0.9 0.0 0.00 0.33 0.00 93 1008.6
20260506211017 54 264 1.7 0.0 0.00 0.33 0.00 93 1008.5
20260506210517 54 289 0.9 0.0 0.00 0.33 0.00 93 1008.5
20260506210017 54 316 0.9 0.0 0.00 0.33 0.00 93 1008.4
20260506205517 54 170 1.7 0.0 0.00 0.33 0.00 93 1008.3
20260506205016 54 226 0.9 0.0 0.00 0.33 0.00 93 1008.4
20260506204517 54 261 1.7 0.0 0.00 0.33 0.00 93 1008.3
20260506204017 54 274 5.2 0.0 0.00 0.33 0.00 93 1008.3
20260506203517 54 295 1.7 0.0 0.00 0.33 0.00 93 1008.4
20260506203017 54 282 1.7 0.0 0.00 0.33 0.00 93 1008.4
20260506202517 54 317 3.5 0.0 0.00 0.33 0.00 92 1008.3
20260506202017 54 267 1.7 0.0 0.00 0.33 0.00 92 1008.2
20260506201516 54 219 0.9 0.0 0.00 0.33 0.00 92 1008.2
20260506201017 54 148 1.7 0.0 0.00 0.33 0.00 92 1008.3
20260506200517 55 242 1.7 0.0 0.00 0.33 0.00 92 1008.2
20260506200017 55 302 1.7 0.0 0.00 0.33 0.00 92 1008.3
20260506195517 55 271 0.9 0.0 0.00 0.33 0.00 92 1008.3
20260506195016 55 251 1.7 0.0 0.00 0.32 0.00 91 1008.3
20260506194517 55 139 0.9 0.0 0.00 0.32 0.00 92 1008.2
20260506194016 55 200 1.7 0.0 0.00 0.32 0.00 92 1008.1
20260506193517 55 263 1.7 0.0 0.00 0.32 0.00 91 1008.2
20260506193017 55 158 0.9 0.0 0.01 0.32 0.00 90 1008.1
20260506192517 55 310 1.7 0.0 0.01 0.32 0.00 91 1008.0
20260506192017 55 134 0.9 0.0 0.04 0.31 0.00 91 1007.9
20260506191516 55 309 1.7 0.0 0.06 0.31 0.00 91 1007.8
20260506191017 55 2 0.9 0.0 0.00 0.31 0.00 91 1007.6
20260506190517 56 250 0.0 0.0 0.00 0.31 0.00 91 1007.7
20260506190018 56 173 0.9 0.0 0.00 0.31 0.00 91 1007.7
20260506185517 56 196 0.9 0.0 0.00 0.31 0.00 91 1007.7
20260506185016 56 334 0.9 0.0 0.00 0.31 0.00 91 1007.7
20260506184517 56 271 0.9 0.0 0.00 0.31 0.00 91 1007.6
20260506184017 56 246 1.7 0.0 0.00 0.31 0.00 91 1007.5
20260506183517 56 162 0.9 0.0 0.37 0.29 0.00 91 1007.5
20260506183017 56 255 0.0 0.0 0.00 0.28 0.00 91 1007.6
20260506182517 56 236 0.9 0.0 0.00 0.28 0.00 90 1007.4
20260506182017 56 248 2.6 0.0 0.00 0.28 0.00 90 1007.2
20260506181516 56 260 0.9 0.0 0.00 0.28 0.00 90 1007.2
20260506181017 56 248 0.9 0.0 0.00 0.28 0.00 90 1007.3
20260506180517 56 318 1.7 0.0 0.00 0.28 0.00 89 1007.2
20260506180017 57 301 1.7 0.0 0.00 0.28 0.00 89 1007.1
20260506175517 57 328 0.0 0.0 0.01 0.28 0.00 89 1007.0
20260506175016 57 317 2.6 0.0 0.00 0.28 0.00 89 1007.0
20260506174517 57 256 2.6 0.0 0.00 0.28 0.00 89 1006.8
20260506174017 58 285 0.9 0.0 0.00 0.28 0.00 88 1006.9
20260506173517 58 1 1.7 0.0 0.01 0.28 0.00 87 1006.9
20260506173017 58 317 4.3 0.0 0.66 0.26 0.00 86 1006.9
20260506172517 59 307 1.7 0.0 0.00 0.23 0.00 85 1007.1
20260506172017 59 348 1.7 0.0 0.20 0.22 0.00 84 1007.0
20260506171516 60 339 0.9 0.0 0.05 0.22 0.00 83 1006.8
20260506171017 60 284 2.6 0.0 0.07 0.21 0.00 81 1006.8
20260506170517 60 302 1.7 0.0 0.00 0.21 0.00 81 1006.8
20260506170017 60 347 3.5 0.0 0.00 0.21 0.00 80 1006.8
20260506165517 60 314 3.5 0.0 0.00 0.21 0.00 79 1006.8
20260506165016 61 183 0.9 0.0 0.00 0.21 0.00 79 1006.8
20260506164517 61 279 0.9 0.0 0.00 0.21 0.00 79 1006.7
20260506164017 61 262 0.9 0.0 0.00 0.21 0.00 79 1006.7
20260506163517 61 310 1.7 0.0 0.00 0.21 0.00 79 1006.7
20260506163017 61 275 0.9 0.0 0.00 0.21 0.00 79 1006.5
20260506162517 61 319 2.6 0.0 0.00 0.21 0.00 78 1006.5
20260506162017 61 296 2.6 0.0 0.00 0.21 0.00 78 1006.5
20260506161516 62 337 1.7 0.0 0.00 0.21 0.00 77 1006.6
20260506161017 62 290 1.7 0.0 0.00 0.21 0.00 77 1006.6
20260506160517 62 325 0.9 0.0 0.00 0.21 0.00 77 1006.6
20260506160017 62 276 1.7 0.0 0.00 0.21 0.00 76 1006.6
20260506155517 63 283 1.7 0.0 0.00 0.21 0.00 76 1006.5
20260506155016 63 283 1.7 0.0 0.00 0.21 0.00 76 1006.4
20260506154517 64 258 1.7 0.0 0.00 0.21 0.00 74 1006.5
20260506154017 65 315 1.7 0.0 0.00 0.21 0.00 72 1006.5
20260506153517 64 282 0.0 0.0 0.00 0.21 0.00 71 1006.5
20260506153017 65 337 2.6 0.0 0.00 0.21 0.00 70 1006.5
20260506152517 66 247 2.6 0.0 0.00 0.21 0.00 70 1006.5
20260506152017 67 259 3.5 0.0 0.00 0.21 0.00 67 1006.5
20260506151516 67 295 1.7 0.0 0.00 0.21 0.00 68 1006.6
20260506151017 67 286 1.7 0.0 0.00 0.21 0.00 67 1006.6
20260506150517 67 310 0.9 0.0 0.00 0.21 0.00 67 1006.6
20260506150017 66 314 2.6 0.0 0.00 0.21 0.00 69 1006.6
20260506145517 66 313 2.6 0.0 0.00 0.21 0.00 69 1006.7
20260506145016 66 297 0.0 0.0 0.00 0.21 0.00 69 1006.6
20260506144517 66 220 0.9 0.0 0.00 0.21 0.00 70 1006.7
20260506144017 65 330 1.7 0.0 0.00 0.21 0.00 71 1006.8
20260506143517 65 331 0.9 0.0 0.00 0.21 0.00 71 1006.7
20260506143017 65 311 1.7 0.0 0.00 0.21 0.00 71 1006.7
20260506142517 66 302 1.7 0.0 0.00 0.21 0.00 70 1006.7
20260506142017 66 31 1.7 0.0 0.00 0.21 0.00 69 1006.6
20260506141516 67 266 1.7 0.0 0.00 0.21 0.00 70 1006.6
20260506141017 66 303 1.7 0.0 0.00 0.21 0.00 70 1006.7
20260506140517 66 307 1.7 0.0 0.00 0.21 0.00 72 1006.9
20260506140017 65 302 1.7 0.0 0.00 0.21 0.00 72 1007.0
20260506135517 65 273 1.7 0.0 0.00 0.21 0.00 73 1007.0
20260506135016 65 255 1.7 0.0 0.00 0.21 0.00 74 1006.9
20260506134517 64 299 1.7 0.0 0.00 0.21 0.00 76 1006.9
20260506134017 64 279 0.9 0.0 0.00 0.21 0.00 76 1006.9
20260506133517 64 0 0.0 0.0 0.00 0.21 0.00 79 1006.9
20260506133017 64 306 1.7 0.0 0.00 0.21 0.00 78 1006.9
20260506132517 63 244 0.9 0.0 0.00 0.21 0.00 83 1007.0
20260506132017 62 321 0.9 0.0 0.00 0.21 0.00 84 1007.0
20260506131516 62 313 3.5 0.0 0.00 0.21 0.00 84 1006.9
20260506131017 61 306 0.9 0.0 0.00 0.21 0.00 87 1007.0
20260506130517 61 315 1.7 0.0 0.00 0.21 0.00 86 1007.0
20260506130017 61 323 1.7 0.0 0.00 0.21 0.00 87 1006.9
20260506125517 61 334 2.6 0.0 0.00 0.21 0.00 85 1007.0
20260506125016 62 300 5.2 0.0 0.91 0.16 0.00 82 1007.1
20260506124517 63 325 4.3 0.0 0.17 0.02 0.00 75 1007.0
20260506124017 64 312 3.5 0.0 0.00 0.02 0.00 72 1006.9
20260506123517 65 331 2.6 0.0 0.00 0.02 0.00 70 1007.0
20260506123017 65 347 2.6 0.0 0.00 0.02 0.00 69 1007.0
20260506122517 66 315 3.5 0.0 0.00 0.02 0.00 67 1007.0
20260506122017 66 298 1.7 0.0 0.00 0.02 0.00 66 1007.0
20260506121517 67 233 0.9 0.0 0.00 0.02 0.00 60 1007.0
20260506121017 68 110 0.9 0.0 0.00 0.02 0.00 62 1007.1
20260506120517 66 218 0.9 0.0 0.00 0.02 0.00 64 1006.9
20260506120017 66 338 0.9 0.0 0.00 0.02 0.00 65 1007.0
20260506115517 66 348 1.7 0.0 0.00 0.02 0.00 64 1007.1
20260506115016 65 312 1.7 0.0 0.00 0.02 0.00 64 1007.1
20260506114517 66 311 0.9 0.0 0.00 0.02 0.00 64 1007.0
20260506114017 66 313 2.6 0.0 0.00 0.02 0.00 65 1007.0
20260506113517 66 8 0.9 0.0 0.00 0.02 0.00 66 1007.0
20260506113017 65 289 1.7 0.0 0.00 0.02 0.00 67 1007.1
20260506112517 65 320 0.9 0.0 0.00 0.02 0.00 68 1007.1
20260506112017 66 329 1.7 0.0 0.00 0.02 0.00 65 1007.0
20260506111517 66 311 0.9 0.0 0.00 0.02 0.00 63 1007.2
20260506111017 66 179 0.9 0.0 0.00 0.02 0.00 66 1007.2
20260506110517 66 170 2.6 0.0 0.00 0.02 0.00 69 1007.3
20260506110017 65 323 2.6 0.0 0.00 0.02 0.00 68 1007.3
20260506105517 65 334 2.6 0.0 0.00 0.02 0.00 66 1007.1
20260506105017 65 281 2.6 0.0 0.00 0.02 0.00 67 1007.2
20260506104517 65 327 1.7 0.0 0.00 0.02 0.00 70 1007.3
20260506104017 64 176 1.7 0.0 0.00 0.02 0.00 72 1007.4
20260506103517 64 336 1.7 0.0 0.00 0.02 0.00 71 1007.4
20260506103017 64 325 1.7 0.0 0.00 0.02 0.00 70 1007.5
20260506102517 64 166 2.6 0.0 0.00 0.02 0.00 69 1007.4
20260506102017 64 196 4.3 0.0 0.00 0.02 0.00 71 1007.3
20260506101517 64 163 1.7 0.0 0.00 0.02 0.00 72 1007.3
20260506101017 64 171 2.6 0.0 0.00 0.02 0.00 70 1007.3
20260506100517 65 341 2.6 0.0 0.00 0.02 0.00 70 1007.2